User: anonymous   Login
Location: Unspecified
(0.0000°N, 0.0000°E)
Time: 00:58:04
(UTC+00:00)
Language:

TBA - TO BE ASSIGNED - Orbit

View from above orbital plane
View from above orbital plane
View from above satellite
View from above satellite

Ground track
Ground track

The orbit is defined by the following mean orbital elements,

1 68599U          26145.41633196 +.00000000 +00000-0 +72607-3 0 00006
2 68599  51.8670 287.2766 0010061 303.6426  56.3601 15.37346255    08
Epoch (UTC): 25 May 2026 09:59:31
Eccentricity: 0.0010061
inclination: 51.8670°
perigee height: 447 km
apogee height: 461 km
right ascension of ascending node: 287.2766°
argument of perigee: 303.6426°
revolutions per day: 15.37346255
mean anomaly at epoch: 56.3601°

The dashed part of the orbit path shows where the satellite is in the earth's shadow,  

DLR